Weather in Kilingi-Nõmme

Estonia     58°09′03″N   24°57′54″E
В апреле 2022 года жителям России запретили посещать сайт meteo.paraplan.net по решению Генеральной прокуратуры. Аудитория сайта уменьшилась в 10 раз. Владельцы сайта не видят смысла в поддержке погодного сервера в таких условиях. Сайт будет закрыт в октябре.
temp.,
°C
wind,
m/s
gust,
m/s
humid.,
%
clouds,
%
prec.,
mm/h
press.,
hPa
HPBL,
m
25 september, sun
sun2500:00+9n258142 0.0 1014164
03:00+5nnw119563 0.0 101412
06:00+7wnw268697 0.0 1014195
09:00+8nnw37840 0.0 1013215
12:00+13nnw35535 0.0 10121267
15:00+13nw4652100 0.0 10101610
18:00+13nnw255813 0.0 1010452
21:00+7nne11795 0.0 100911
26 september, mon
mon2600:00+6se118414 0.0 100910
03:00+6s228182 0.0 100845
06:00+6sse248291 0.0 100874
09:00+8sse36776 0.0 1008188
12:00+13sse35565 0.0 1008767
15:00+15sse355494 0.1 10071369
18:00+13sse257066 0.2 1007170
21:00+8se39855 0.3 1008161
27 september, tue
tue2700:00+9ese3982100 0.0 1008267
03:00+10ese3975100 0.0 1008301
06:00+9se387782 0.0 1008229
09:00+9ese39785 0.0 1009270
12:00+14ese47555 0.0 1009797
15:00+16ese46460 0.0 10081433
18:00+13e48574 0.0 1008698
21:00+9e31174100 0.0 1008339
28 september, wed
wed2800:00+8e3118098 0.0 1008335
03:00+6e311925 0.0 1008312
06:00+5e311966 0.0 1007306
09:00+7e3109051 0.0 1006429
12:00+12e576165 0.0 10051232
15:00+12e4763100 0.1 1004915
18:00+10e497392 0.1 1004750
21:00+7ene4119480 0.2 1004456
29 september, thu
thu2900:00+8e4993100 0.4 1004518
03:00+7e3894100 0.4 1004453
06:00+7ese3893100 0.0 1003507
09:00+8ese3889100 0.0 1003380
12:00+10se4680100 0.1 1003723
15:00+9s389381 1.7 1004620
18:00+10sse38838 0.3 1005503
21:00+8sse411935 0.3 1006312